PDT,Max TemperatureF,Mean TemperatureF,Min TemperatureF,Max Dew PointF,MeanDew PointF,Min DewpointF,Max Humidity, Mean Humidity, Min Humidity, Max Sea Level PressureIn, Mean Sea Level PressureIn, Min Sea Level PressureIn, Max VisibilityMiles, Mean VisibilityMiles, Min VisibilityMiles, Max Wind SpeedMPH, Mean Wind SpeedMPH, Max Gust SpeedMPH,PrecipitationIn, CloudCover, Events, WindDirDegrees
2013-3-1,73,57,41,49,44,38,93,67,35,30.43,30.34,30.26,10,10,10,7,3,,0.00,0,,57
2013-3-2,70,58,45,52,48,43,93,71,44,30.27,30.16,30.07,10,10,9,9,2,,0.00,1,,124
2013-3-3,64,58,50,52,49,46,87,71,56,30.07,30.04,30.01,10,10,10,9,5,,0.00,5,,127
2013-3-4,66,54,42,51,46,41,100,78,52,30.14,30.07,30.02,10,9,2,9,3,,0.00,0,,159
2013-3-5,62,54,45,44,41,38,86,65,44,30.03,29.95,29.84,10,10,4,20,13,26,0.15,3,Rain,161
2013-3-6,60,51,41,45,41,38,89,73,47,30.05,29.98,29.82,10,10,10,25,16,34,0.04,4,Rain,168
2013-3-7,57,46,35,40,38,35,100,79,44,30.02,29.96,29.89,10,7,1,8,2,,0.00,2,,335
2013-3-8,66,52,39,44,36,29,86,59,24,30.04,29.87,29.81,10,10,10,9,6,21,0.00,0,,347
2013-3-9,71,54,37,45,36,28,100,57,22,30.30,30.23,30.07,10,10,8,17,5,25,0.00,0,,346
2013-3-10,66,52,37,44,40,32,86,64,38,30.38,30.31,30.26,10,10,10,9,4,,0.00,0,,98
2013-3-11,72,55,39,46,42,38,96,65,34,30.28,30.20,30.10,10,10,7,7,3,,0.00,0,,113
2013-3-12,75,59,43,51,46,41,93,65,37,30.18,30.12,30.07,10,10,9,6,2,,0.00,0,,107
2013-3-13,80,62,46,52,49,44,97,67,32,30.19,30.13,30.07,10,10,6,6,2,,0.00,0,,6
2013-3-14,79,62,46,52,48,44,90,63,32,30.15,30.11,30.08,10,10,10,4,1,,0.00,0,,127
2013-3-15,79,63,48,51,47,41,97,66,27,30.12,30.07,30.01,10,10,9,7,2,,0.00,0,,29
2013-3-16,53,53,50,47,46,46,86,83,80,30.07,30.02,29.97,10,10,10,4,2,,0.00,0,,130
2013-3-17,72,62,48,39,32,27,66,36,19,30.12,30.06,30.01,10,10,10,9,6,,0.00,0,,334
2013-3-18,71,56,41,49,40,36,86,56,30,30.12,30.07,30.02,10,10,10,7,3,,0.00,1,,98
2013-3-19,68,57,46,55,47,42,92,70,39,30.13,30.09,30.05,10,9,5,12,5,,0.13,5,Rain,134
2013-3-20,64,58,51,57,54,50,100,90,72,30.11,30.08,30.05,10,7,1,21,10,26,0.45,7,Rain,165
2013-3-21,68,54,41,49,40,25,100,70,20,30.13,30.08,30.01,10,7,0,21,7,28,0.00,3,Fog,334
2013-3-22,66,54,44,27,24,20,48,32,18,30.13,30.07,30.03,10,10,10,25,19,37,0.00,0,,328
2013-3-23,70,56,44,40,29,25,73,40,20,30.15,30.09,30.03,10,10,10,22,12,29,0.00,0,,338
2013-3-24,75,55,37,46,39,33,89,55,23,30.10,30.03,29.95,10,10,10,6,3,,0.00,0,,103
2013-3-25,71,57,44,48,42,38,86,60,33,30.00,29.95,29.89,10,10,10,15,7,22,0.00,1,,144
2013-3-26,71,58,44,48,45,41,93,66,36,30.00,29.95,29.91,10,10,10,13,8,,0.00,3,,162
2013-3-27,73,60,48,51,48,44,86,68,45,30.01,29.95,29.93,10,10,10,17,8,21,0.00,4,,162
2013-3-28,66,60,54,54,51,48,93,76,54,30.11,30.07,30.01,10,10,10,13,9,,0.00,5,Rain,170
2013-3-29,80,63,48,51,49,44,97,65,30,30.12,30.07,30.01,10,10,8,9,4,,0.01,0,,346
2013-3-30,78,64,50,52,49,47,89,63,37,30.04,30.00,29.95,10,10,10,8,4,,0.00,2,,172
2013-3-31,70,62,53,56,53,47,100,87,45,30.12,30.05,29.99,10,7,2,22,7,37,1.39,7,Rain-Thunderstorm,149